Location: Doverdale
(52.2833°N, 2.2000°W)
Time: 03:24:20
(UTC+00:00)

Meteor 2-10 Rocket - Pass Details

Date: 29 October 2020
Orbit: 733 x 885 km, 81.2° (Epoch: 27 November)

Event Time Altitude Azimuth Distance (km) Brightness Sun altitude
Rises 17:49:52 0° 162° (SSE) 3,281 6.7 -10.5°
Reaches altitude 10° 17:52:28 10° 153° (SSE) 2,333 5.8 -10.9°
Maximum altitude 17:57:05 33° 91° (E) 1,272 4.1 -11.6°
Drops below altitude 10° 18:01:36 10° 29° (NNE) 2,278 5.6 -12.2°
Sets 18:04:06 0° 20° (NNE) 3,194 6.4 -12.6°
